Weather observations for the past three days for
Oahu, Kalaeloa Airport
Imperial (Metric)
Date Time (hst) Wind (mph) Vis. (mi.) Weather Sky Cond. Temperature (ºF) Relative Humidity Wind Chill (°F) Heat Index (°F) Pressure Precipitation (in)
Air Dwpt 6 hour altimeter (in) sea level (mb) 1 hr 3 hr 6 hr
Max. Min.
13 00:53 NE 8 10.00 Mostly Cloudy FEW028 BKN041 73.9 66.9 79% 30.07 1019.0
12 23:53 Vrbl 5 10.00 Overcast BKN031 OVC040 75 66.9 76% 76 30.09 1019.7
12 22:53 NE 7 G 21 10.00 Mostly Cloudy BKN041 75 66 74% 76 30.09 1019.5
12 21:53 E 12 G 21 10.00 Mostly Cloudy BKN038 75.9 66 72% 77 30.09 1019.4
12 20:53 NE 10 G 21 10.00 Mostly Cloudy BKN035 75.9 66.9 74% 77 30.08 1019.0
12 19:53 NE 7 10.00 Partly Cloudy SCT037 75.9 66.9 86 75.9 74% 77 30.06 1018.6
12 18:53 Vrbl 6 10.00 Mostly Cloudy BKN039 78.1 68 71% 80 30.05 1018.1
12 17:53 NE 8 G 17 10.00 Mostly Cloudy FEW029 BKN037 79 66.9 67% 81 30.03 1017.7
12 16:53 NE 9 G 22 10.00 Overcast SCT027 OVC033 79 69.1 72% 82 30.02 1017.3
12 15:53 NE 10 G 29 10.00 Partly Cloudy FEW030 SCT035 82.9 69.1 63% 87 30.02 1017.0
12 14:53 E 16 G 29 10.00 Partly Cloudy SCT037 82.9 68 61% 86 30.02 1017.1
12 13:53 NE 14 G 30 10.00 A Few Clouds FEW035 84 68 86 77 59% 87 30.03 1017.7
12 12:53 E 12 G 24 10.00 Fair CLR 86 68 55% 89 30.05 1018.0
12 11:53 Vrbl 7 G 21 10.00 A Few Clouds FEW038 84.9 68 57% 88 30.06 1018.4
12 10:53 E 8 G 23 10.00 Mostly Cloudy BKN039 84.9 68 57% 88 30.07 1018.8
12 09:53 E 9 G 21 10.00 Overcast BKN034 OVC043 81 68 65% 84 30.08 1019.3
12 08:53 Vrbl 7 G 20 10.00 A Few Clouds FEW035 82 66.9 60% 85 30.08 1019.3
12 07:53 Calm 10.00 Fair CLR 79 68 79 69.1 69% 81 30.09 1019.4
12 06:53 NE 7 10.00 Fair CLR 73 68 84% 30.08 1019.1
12 05:53 NE 5 10.00 Fair CLR 71.1 66.9 87% 30.05 1018.3
12 04:53 NE 3 10.00 Fair CLR 71.1 66.9 87% 30.04 1017.9
12 03:53 E 5 10.00 A Few Clouds FEW055 72 66.9 84% 30.04 1017.7
12 02:53 E 5 10.00 Fair CLR 72 66 82% 30.05 1018.0
12 01:53 E 6 10.00 A Few Clouds FEW046 73 66.9 75 73 81% 30.05 1018.2
12 00:53 Vrbl 3 10.00 Fair CLR 73 66.9 81% 30.06 1018.4
11 23:53 E 9 10.00 Mostly Cloudy SCT037 BKN045 75 66.9 76% 76 30.06 1018.7
11 22:53 Vrbl 7 10.00 Fair CLR 73.9 66 76% 30.06 1018.5
11 21:53 E 9 10.00 Fair CLR 73.9 68 82% 30.04 1018.0
11 20:53 NE 8 10.00 Mostly Cloudy FEW028 BKN036 73.9 69.1 85% 30.03 1017.5
11 19:53 E 8 9.00 Mostly Cloudy SCT030 BKN036 75 68 84 73.9 79% 76 30.02 1017.0 0.01
11 18:53 NE 8 G 16 10.00 Partly Cloudy FEW029 SCT036 SCT044 75 68 79% 76 30 1016.4
11 17:53 NE 9 G 22 10.00 Overcast FEW021 BKN040 OVC060 75 70 84% 75 29.98 1016.0 0.01
11 16:53 E 7 G 18 5.00 Light Rain FEW024 BKN033 BKN041 75 70 84% 75 29.97 1015.5
11 15:53 NE 8 G 30 10.00 Partly Cloudy FEW039 SCT049 81 66.9 62% 83 29.96 1015.3
11 14:53 NE 12 G 31 10.00 Partly Cloudy FEW034 SCT070 84 66 55% 86 29.97 1015.4
11 13:53 NE 9 G 20 10.00 Mostly Cloudy BKN037 BKN049 81 66.9 84.9 75.9 62% 83 29.99 1016.0
11 12:53 E 14 G 25 10.00 Mostly Cloudy SCT034 BKN043 80.1 66.9 64% 82 30.01 1016.7
11 11:53 NE 12 G 25 10.00 Mostly Cloudy FEW038 SCT046 BKN060 82.9 64.9 55% 85 30 1016.6
11 10:53 NE 12 G 22 10.00 A Few Clouds FEW065 82.9 66 57% 85 30.02 1017.0
11 09:53 NE 12 G 23 10.00 A Few Clouds FEW060 81 66 61% 83 30.02 1017.2
11 08:53 NE 9 G 22 10.00 Partly Cloudy FEW042 FEW050 SCT065 78.1 66.9 69% 80 30.02 1017.3
11 07:53 NE 8 G 22 10.00 Partly Cloudy SCT060 79 64.9 79 73.9 62% 81 30.02 1017.1
11 06:53 NE 8 G 17 10.00 Mostly Cloudy BKN042 BKN050 75.9 64.9 69% 78 30.01 1016.9
11 05:53 NE 10 G 20 10.00 Mostly Cloudy BKN050 75 64.9 71% 77 29.99 1016.1
11 04:53 NE 8 G 18 10.00 Partly Cloudy SCT048 75 64.9 71% 77 29.97 1015.6
11 03:53 NE 9 10.00 A Few Clouds FEW049 75 64.9 71% 77 29.97 1015.4
11 02:53 NE 8 10.00 Partly Cloudy SCT048 SCT055 73.9 66 76% 29.98 1015.8
11 01:53 E 6 10.00 Partly Cloudy SCT050 75 64.9 77 73.9 71% 77 29.99 1016.0
11 00:53 E 9 10.00 Mostly Cloudy SCT042 BKN050 75 66.9 76% 76 30.01 1016.8
10 23:53 NE 6 G 20 10.00 A Few Clouds FEW050 75 66 74% 76 30.02 1017.2
10 22:53 NE 7 G 17 10.00 Mostly Cloudy BKN048 75.9 66 72% 77 30.03 1017.6
10 21:53 NE 6 G 21 10.00 A Few Clouds FEW048 75 66 74% 76 30.03 1017.6
10 20:53 NE 13 G 22 10.00 Fair CLR 75 66 74% 76 30.01 1016.8
10 19:53 NE 9 G 24 10.00 Fair CLR 75 66 84.9 75 74% 76 30 1016.5
10 18:53 NE 8 G 30 10.00 Fair CLR 75.9 66 72% 77 29.99 1016.2
10 17:53 NE 13 G 25 10.00 A Few Clouds FEW003 80.1 66 62% 82 29.97 1015.5
10 16:53 NE 13 G 26 10.00 Partly Cloudy FEW030 SCT039 80.1 66.9 64% 82 29.97 1015.6
10 15:53 NE 13 G 26 10.00 Mostly Cloudy SCT040 BKN048 BKN060 82 66.9 60% 85 29.97 1015.5
10 14:53 E 14 G 24 10.00 A Few Clouds FEW041 82.9 66 57% 85 29.98 1015.9
10 13:53 E 12 G 26 10.00 Mostly Cloudy BKN037 BKN046 81 66 84.9 75.9 61% 83 30 1016.3
10 12:53 E 15 G 25 10.00 Partly Cloudy FEW045 SCT055 82.9 64.9 55% 85 30.01 1016.8
10 11:53 NE 12 G 22 10.00 Mostly Cloudy SCT040 BKN048 BKN055 82.9 66.9 59% 86 30.03 1017.5
10 10:53 Calm 10.00 Partly Cloudy FEW043 SCT050 82.9 64.9 55% 85 30.03 1017.7
10 09:53 E 9 G 22 10.00 Partly Cloudy FEW041 SCT050 82 66.9 60% 85 30.04 1017.9
10 08:53 E 10 G 22 10.00 Mostly Cloudy SCT043 BKN050 80.1 66.9 64% 82 30.04 1017.9
10 07:53 Vrbl 5 10.00 Fair CLR 77 66.9 78.1 70 71% 79 30.04 1017.8
10 06:53 NE 6 10.00 Partly Cloudy SCT046 73.9 68 82% 30.03 1017.4
10 05:53 NE 6 10.00 Partly Cloudy SCT044 72 68 87% 30.01 1016.9
10 04:53 N 7 10.00 Mostly Cloudy BKN043 71.1 69.1 94% 30.01 1016.7
10 03:53 NE 7 10.00 Mostly Cloudy BKN024 BKN033 BKN045 71.1 68 90% 30.01 1016.8
10 02:53 NE 5 10.00 Overcast OVC036 73.9 66 76% 30.01 1016.9
10 01:53 NE 3 10.00 Partly Cloudy SCT043 73 66 75 73 79% 30.02 1017.3
Date Time (hst) Wind (mph) Vis. (mi.) Weather Sky Cond. Air Dwpt Max. Min. Relative Humidity Wind Chill (°F) Heat Index (°F) altimeter (in) sea level (mb) 1 hr 3 hr 6 hr
6 hour
Temperature (ºF) Pressure Precipitation (in)